Regional Weather Roundup
Issued by NWS

Home | Current Version | Previous Version | Graphics & Text | Print | Product List | Glossary On
Versions: 1 2 3 4 5 6 7 8 9 10 11 12 13 14 15 16 17 18 19 20 21 22 23 24 25 26 27
000
ASUS45 KBOU 250707
RWRCO

WEATHER ROUNDUP FOR COLORADO
NATIONAL WEATHER SERVICE DENVER/BOULDER CO
100 AM MDT WED MAY 25 2016

NOTE: "FAIR" INDICATES FEW OR NO CLOUDS BELOW 12000 FEET WITH NO
SIGNIFICANT WEATHER AND/OR OBSTRUCTIONS TO VISIBILITY.

COZ001>005-013-030-031-250800-
...NORTHWEST COLORADO...

CITY           SKY/WX    TMP DP  RH WIND       PRES   REMARKS
CRAIG          CLOUDY    50  33  52 NW8       30.03R
HAYDEN         FAIR      45  30  57 CALM      30.02S
MEEKER         MOCLDY    51  31  46 NW10      30.03R
MOUNT WERNER   NOT AVBL
STEAMBOAT SPGS MOCLDY    45  29  54 E6        30.03S
WALDEN         FAIR      37  27  65 CALM      30.07S
$$

COZ006>008-011-250800-
...WEST CENTRAL VALLEYS...

CITY           SKY/WX    TMP DP  RH WIND       PRES   REMARKS
GRAND JUNCTION FAIR      54  27  35 NW8       29.94R
MONTROSE       FAIR      49  24  37 S12       30.02R
EAGLE          MOCLDY    46  21  36 E7        30.02R
RIFLE          FAIR      59  27  29 N6G17     29.96R
DELTA          FAIR      60  20  22 NE3       29.95R
NUCLA          FAIR      55  18  22 MISG      30.04S
$$

COZ017>023-064>068-250800-
...SOUTHWEST COLORADO...

CITY           SKY/WX    TMP DP  RH WIND       PRES   REMARKS
DURANGO        FAIR      40  19  43 E7        30.10R
CORTEZ         FAIR      54  19  25 S10       30.06R
PAGOSA SPRINGS FAIR      41  20  42 CALM      30.15R
TELLURIDE      FAIR      48  13  24 W10G16    30.19R
WOLF CREEK PAS FAIR      32  10  40 SW26G38   30.32R WCI  18
$$

COZ009-010-012-014-032>034-037-058>063-250800-
...CENTRAL COLORADO...

CITY           SKY/WX    TMP DP  RH WIND       PRES   REMARKS
ASPEN          FAIR      44  21  40 SE8       30.04S
BUENA VISTA    FAIR      45  14  28 CALM      30.07S
COPPER MTN     NOT AVBL
BERTHOUD PASS  FAIR      30  19  64 W5        30.25S WCI  25
COTTONWOOD PAS FAIR      46   3  17 SW8       30.15F
GUNNISON       FAIR      39  19  45 CALM      30.11S
KREMMLING      MOCLDY    48  27  43 E3        30.06R
LEADVILLE      FAIR      33  20  58 E5        30.14S WCI  29
MONARCH PASS   FAIR      32  10  40 SW22      30.35S WCI  19
SALIDA         FAIR      49  14  24 SW7       30.13R
SUNLIGHT       CLOUDY    37  23  56 CALM      30.20F
WILKERSON PASS FAIR      36  12  38 SW6       30.24S
$$

COZ069>075-250800-
...SAN LUIS VALLEY/SANGRE DE CRISTO MOUNTAINS...

CITY           SKY/WX    TMP DP  RH WIND       PRES   REMARKS
ALAMOSA        FAIR      43  17  35 S10       30.08S
LA VETA PASS   FAIR      43  10  26 S13G25    30.19F
SAGUACHE       FAIR      39  16  38 NW6       30.10R
$$

COZ035-036-038>040-250800-
...NORTHERN COLORADO FRONT RANGE...

CITY           SKY/WX    TMP DP  RH WIND       PRES   REMARKS
DENVER INTL AP FAIR      52 N/A N/A W5        29.90R
DMNS CITY PARK   N/A     54  46  74 E7G13     29.90R
AURORA         PTCLDY    48  47  96 SE5       29.91R
FRONT RANGE AP NOT AVBL
ERIE MUNI ARPT FAIR      46  44  93 CALM      29.89S
BOULDER MUN AP FAIR      50  45  81 N5        29.89R
CENTENNIAL     FAIR      48  44  86 SE3       29.92R
BROOMFIELD     FAIR      52  45  76 E7        29.91R
FORT COLLINS   FAIR      54  46  76 N13       29.90F
LONGMONT       FAIR      48  44  88 E6        29.92R
$$

COZ041-046-047-076>085-087-088-250800-
...PIKES PEAK/PALMER DIVIDE AND SOUTHERN FOOTHILLS...

CITY           SKY/WX    TMP DP  RH WIND       PRES   REMARKS
COLO. SPRINGS  FAIR      58  14  17 W10       29.95R
A. F. ACADEMY  FAIR      54  18  24 SW1       29.95R
SCHRIEVER AFB  NOT AVBL
ELLICOTT       FAIR     N/A N/A N/A NW5       29.93R
FALCON         FAIR      53  15  22 W9        29.98S
FORT CARSON    FAIR      63  14  15 W8        29.91S
LIMON          FAIR      47  45  93 NW10      29.88S
MONUMENT HILL  FAIR      43  34  70 CALM      29.99S
TRINIDAD       FAIR      50  27  40 W9        29.96R
$$

COZ042>045-048>051-090-091-250800-
...NORTHEAST COLORADO...

CITY           SKY/WX    TMP DP  RH WIND       PRES   REMARKS
GREELEY ARPT   FAIR      52  45  76 N10       29.90R
AKRON          FAIR      55  53  93 E10       29.84R
BURLINGTON     FAIR      51  49  92 CALM      29.81R FOG
WRAY           MOCLDY    57  57 100 E9        29.81S
STERLING       FAIR      55  52  88 NE5       29.81F
HOLYOKE        MOCLDY    59  54  82 NE9       29.82F
FORT MORGAN    MOCLDY    55  50  82 N5        29.85R
$$

COZ086-089-092>099-250800-
...SOUTHEAST COLORADO...

CITY           SKY/WX    TMP DP  RH WIND       PRES   REMARKS
PUEBLO         FAIR      54  28  36 W9        29.85S
LA JUNTA       FAIR      65  27  23 SW14      29.82R
LAMAR          FAIR      57  38  48 VRB5      29.77R
SPRINGFIELD      N/A     48  30  49 W5        29.84R
$$




USA.gov is the U.S. government's official web portal to all federal, state and local government web resources and services.